Regional Weather Roundup
Issued by NWS Kansas City/Pleasant Hill, MO

Home | Current Version | Previous Version | Text Only | Print | Product List | Glossary On
Versions: 1 2 3 4 5 6 7 8 9 10 11 12 13 14 15 16 17 18 19 20 21 22 23 24 25 26
000
ASUS43 KEAX 252210
RWREAX

WEATHER ROUNDUP FOR EASTERN KANSAS AND NORTHWEST MISSOURI
NATIONAL WEATHER SERVICE KANSAS CITY/PLEASANT HILL MO
500 PM CDT WED MAY 25 2016

KSZ040-057-103>105-MOZ028-029-037-043-252300-
...KANSAS CITY METROPOLITAN AREA...

CITY           SKY/WX    TMP DP  RH WIND       PRES   REMARKS
K.C. INTL      PTSUNNY   81  66  60 S13       29.86F
K.C. DOWNTOWN  SUNNY     84  65  52 S16G22    29.85F
LEES SUMMIT    SUNNY     83  64  52 S16G23    29.87F
OLATHE - IXD   SUNNY     81  66  60 S15G23    29.87F
OLATHE - OJC   SUNNY     80  65  59 S15       29.87F
LAWRENCE       MOSUNNY   83  67  58 S15G25    29.85F

$$

MOZ001>008-011>017-020>025-030>033-038>040-044>046-053-054-252300-
...NORTHERN AND CENTRAL MISSOURI...

CITY           SKY/WX    TMP DP  RH WIND       PRES   REMARKS
ST. JOSEPH     CLOUDY    80  65  59 S10       29.85F
MOSBY          MOCLDY    81  63  54 S9        29.86F
WARRENSBURG    SUNNY     82  63  51 S10       29.87F
WHITEMAN AFB   MOSUNNY   83  66  56 SW16      29.87F
CLINTON        SUNNY     84  64  51 S12       29.89F
SEDALIA        SUNNY     83  62  49 S14       29.90F
WARSAW         NOT AVBL
CHILLICOTHE      N/A     85  62  46 VRB5      29.87S
KIRKSVILLE     SUNNY     82  65  56 S9        29.89F

$$

MOZ041-047>049-056>058-063>065-088>090-097-252300-
...EASTERN AND SOUTHERN MISSOURI...

CITY           SKY/WX    TMP DP  RH WIND       PRES   REMARKS
ST. LOUIS INTL PTSUNNY   84  62  47 SW9       29.92F
SPIRIT OF STL  CLOUDY    82  64  54 S7        29.91F
COLUMBIA       CLOUDY    83  63  50 S12       29.91F
JEFFERSON CITY CLOUDY    82  64  54 S8        29.90F
ROLLA          MOSUNNY   79  63  57 S7        29.94F
SPRINGFIELD    MOSUNNY   80  63  55 S9        29.95S
BRANSON        PTSUNNY   81  68  65 SE7       29.99S
JOPLIN         PTSUNNY   82  70  66 S14       29.91F
WEST PLAINS    SUNNY     76  64  66 S7        30.02R

$$

IAZ060-094-KSZ022-034>040-054-083-096-NEZ052-066-093-252300-
...KANSAS...SOUTHEAST NEBRASKA AND IOWA...

CITY           SKY/WX    TMP DP  RH WIND       PRES   REMARKS
TOPEKA           N/A     83  67  58 S16G22    29.84F
MANHATTAN      PTSUNNY   82  70  66 S14       29.81F
EMPORIA        CLOUDY    79  70  74 SE12      29.84F
CHANUTE        CLOUDY    81  71  71 SE14      29.87F
WICHITA        MOSUNNY   89  72  56 S18       29.79F HX  96
OMAHA          CLOUDY    78  66  66 S12       29.83S
LINCOLN        CLOUDY    75  66  73 S10       29.85S
FALLS CITY     PTSUNNY   79  66  64 S15G22    29.85S
LAMONI         SUNNY     80  64  58 SW14G24   29.86F
DES MOINES     MOSUNNY   80  62  54 S8        29.86S

$$





USA.gov is the U.S. government's official web portal to all federal, state and local government web resources and services.